Tracking 30923 objects as of 1-Jul-2025
HD Live streaming from Space Station
objects crossing your sky now

DMSP 5D-2 F13 DEB

Track DMSP 5D-2 F13 DEB now!
10-day predictions


NORAD ID: 40449
Int'l Code: 1995-015BB
Perigee: 783.6 km
Apogee: 816.9 km
Inclination: 98.9 °
Period: 100.7 minutes
Semi major axis: 7171 km
RCS: Unknown
Launch date: March 24, 1995
Source: United States (US)
Launch site: AIR FORCE WESTERN TEST RANGE (AFWTR)

Note: This is SATELLITE DEBRIS
Your satellite tracking list
Your tracking list is empty




NASA's NSSDC Master Catalog

Two Line Element Set (TLE):
1 40449U 95015BB  25180.28833245  .00002420  00000-0  96121-3 0  9992
2 40449  98.9241 181.8949 0023216 203.2009 156.8126 14.29572728533104
Source of the keplerian elements: AFSPC